SL-8 DEB

Satellite information

Favourite Embed

Satellite Type and Status

DEBRISIN ORBIT

Key statistics

Satellite SL-8 DEB at a glance.

Uptime

16074

Days in orbit

Revolutions

≈ 12.2

Per day

Orbit

LEO

Low Earth Orbit

Inclination

83.0

Latest

Satellite identification and parameters

Extended collection of information and parameters for SL-8 DEB.

Object identification

Identified? True

Debris? True

Object name: SL-8 DEB

International designator: 1981-120K

Object number (NORAD): 27738

Object ID (CCSDS): 27738

Country: COMMONWEALTH OF INDEPENDENT STATES (CIS)

Current information (Y/N): Y

RCS size: SMALL

Orbital parameters

Period: 118.447 minutes

Inclination: 82.9596 deg

SMA: 7989.322 km

Apoapsis: 1655.556 km

Periapsis: 1566.818 km

RAAN: 10.7248 deg

Eccentricy: 0.00555355

Argument of periapsis: 320.055 deg

Mean anomaly: 67.1292 deg

Mean motion: 12.15732017 rev/day

Mean motion (dot): 0.00000055 rev/day2

B* drag term: 0.00046501556 1/REarth

Two-line elements (TLE)

Creation date: Dec. 16, 2025, 6:50 p.m.

Reference frame: TEME

Reference center: EARTH

Epoch: Dec. 16, 2025, 1 a.m. UTC

TLE line 0: 0 SL-8 DEB

TLE line 1: 1 27738U 81120K 25350.04206884 .00000055 00000-0 46502-3 0 9996

TLE line 2: 2 27738 82.9596 10.7248 0055536 320.0550 67.1292 12.15732017569487

Live tracking on map

Real-time ground track for satellite SL-8 DEB.

In-orbit conjunctions

A list of the most updated potential collisions computed for object SL-8 DEB.

Target Orbit TCA Probability of collision Miss distance Type
DELTA 1 DEB SSO 2024-09-20 16:53:42 0.000128383 232.0 (m) DEBRIS

Associated space launch

6 Soviet amateur radio satellites

SL-8 DEB was lifted into orbit during the mission ‘Kosmos-3M | Radio Sputnik 3 to 8’, on board a Kosmos-3M space rocket.

The launch took place on Dec. 17, 1981, 11 a.m. from 132/2.

For more information about the launch, click the button.

Launch to space Kosmos-3M | Radio Sputnik 3 to 8
Kosmos-3M | Radio Sputnik 3 to 8

Agency: N/A

Status: Launch Successful

Launch date: Dec. 17, 1981, 11 a.m. UTC

Rocket: Kosmos-3M

Launch pad: 132/2

Location: Plesetsk Cosmodrome, Russian Federation

...

Latest news about this satellite

There are no fresh news available about this satellite. Check back as we update our databases every day.


Newsletter sign-up

Weekly statistics, charts and insights to help you stay on top of the space industry.